Наугарзан

Таджикистан     40°59′52″N   70°25′51″E
темп.,
°C
ветер,
м/с
пор.,
м/с
влажн.,
%
обл.,
%
осадки,
мм/ч
давл.,
гПа
погр.,
м
12 августа, пт
пт1223:00+16сз45350 0.0 1013108
02:00+16сз33364 0.0 101234
05:00+15сз22380 0.0 101219
08:00+19з01300 0.0 1013417
11:00+22ююв22260 0.0 10111488
14:00+25юз34220 0.0 10092194
17:00+24зюз33210 0.0 10081658
20:00+20зсз33270 0.0 101041
13 августа, сб
сб1323:00+18сз33290 0.0 101042
02:00+17сз32320 0.0 101022
05:00+16сз22330 0.0 101016
08:00+21юв11260 0.0 1010551
11:00+24юв32230 0.0 10091567
14:00+27ю23180 0.0 10072466
17:00+26зюз32190 0.0 10071719
20:00+21зсз22250 0.0 100814
14 августа, вс
вс1423:00+20ссз33270 0.0 100828
02:00+19ссз11300 0.0 100711
05:00+17всв11340 0.0 100711
08:00+23вюв12240 0.0 1007518
11:00+26ююв32200 0.0 10071559
14:00+28ююз23180 0.0 10052318
17:00+27з33190 0.0 10051450
20:00+23зсз33240 0.0 100645
15 августа, пн
пн1523:00+21сз44260 0.0 100653
02:00+20сз33270 0.0 100632
05:00+19сз33290 0.0 100722
08:00+24зсз11220 0.0 1007362
11:00+27ююз12180 0.0 10061756
14:00+29зюз54150 0.0 10042396
17:00+28з88160 0.0 10041805
20:00+23зсз44210 0.0 100659
16 августа, вт
вт1623:00+21сз55250 0.0 100770
02:00+20сз55260 0.0 100759
05:00+19сз44270 0.0 100850
08:00+23зсз34220 0.0 1008726
11:00+26з58170 0.0 10071776
14:00+27з1011170 0.0 10061758
17:00+26з1114160 0.0 10051901
20:00+21зсз611210 0.0 1007372